Regional Weather Roundup
Issued by NWS

Home | Current Version | Previous Version | Graphics & Text | Print | Product List | Glossary On
Versions: 1 2 3 4 5 6 7 8 9 10 11 12 13 14 15 16 17 18 19 20 21 22 23 24 25 26 27 28 29 30 31 32 33 34 35 36 37 38 39 40 41 42 43 44 45 46 47 48 49 50
000
ASUS43 KDMX 181001
RWRIA

WEATHER ROUNDUP FOR IOWA
NATIONAL WEATHER SERVICE DES MOINES IA
500 AM CDT FRI AUG 18 2017

NOTE: "FAIR" INDICATES FEW OR NO CLOUDS BELOW 12,000 FEET WITH NO
SIGNIFICANT WEATHER AND/OR OBSTRUCTIONS TO VISIBILITY.

* - THESE STATIONS ARE NOT NWS STATIONS...THUS NOT UNDER NWS
QUALITY CONTROL.  THEY ALSO DO NOT REPORT WEATHER SUCH
AS PRECIPITATION OR FOG.

IAZ001>003-012>014-020>022-031>034-043>046-181100-
   NORTHWEST IOWA

CITY           SKY/WX    TMP DP  RH WIND       PRES   REMARKS
CARROLL *      MOCLDY    61  59  94 SE5       29.91F
CHEROKEE *     LGT RAIN  62  62 100 E6        29.87S
DENISON *      PTCLDY    63  61  94 SE7       29.88F
LE MARS *      MOCLDY    68  61  77 E10       29.84F
ORANGE CITY *  MOCLDY    64  63  94 E8        29.86F
SHELDON *      DRIZZLE   61  61 100 CALM      29.88R
SIOUX CITY     MOCLDY    64  63  96 SE5       29.86F
SPENCER        CLOUDY    61  60  97 E7        29.87F
STORM LAKE *   MOCLDY    63  61  94 E6        29.89F
$$

IAZ055>058-069>071-079>083-090>094-181100-
   SOUTHWEST IOWA

CITY           SKY/WX    TMP DP  RH WIND       PRES   REMARKS
ATLANTIC *     CLOUDY    63  59  88 CALM      29.92F
AUDUBON *      PTCLDY    59  55  88 CALM      29.93F
CLARINDA *       N/A     59  59 100 CALM      29.95R
COUNCIL BLFS * MOCLDY    66  64  94 W5        29.93S
CRESTON *      PTCLDY    57  57 100 W7        29.96R
HARLAN  *      PTCLDY    59  59 100 CALM      29.93F FOG
LAMONI         CLEAR     60  58  92 W3        29.92F
RED OAK *      MOCLDY    63  61  94 CALM      29.93S
SHENANDOAH *   CLOUDY    61  59  94 CALM      29.94S
$$

IAZ047>049-059>061-072>074-084-181100-
   CENTRAL IOWA

CITY           SKY/WX    TMP DP  RH WIND       PRES   REMARKS
AMES           CLOUDY    59  59 100 W8        29.94R
ANKENY *       MOCLDY    57  57 100 CALM      29.92R
BOONE *        CLOUDY    63  61  94 NW5       29.92R
CHARITON *     CLEAR     61  59  94 SW3       29.91S
DES MOINES     CLOUDY    63  60  90 CALM      29.90R
GRINNELL*      CLEAR     59  58  96 SW5       29.92R
KNOXVILLE *    CLEAR     59  57  94 W6        29.90S
MARSHALLTOWN   CLOUDY    57  57 100 NW7       29.90R
NEWTON *       CLEAR     59  59 100 SW7       29.91R FOG
PELLA *        CLEAR     61  60  96 CALM      29.91S
PERRY *          N/A     60  59  97 N3        29.93R
$$

IAZ004>006-015-016-023>025-035-036-181100-
   NORTH CENTRAL IOWA

CITY           SKY/WX    TMP DP  RH WIND       PRES   REMARKS
ALGONA *       CLOUDY    61  61 100 W3        29.92R
CLARION *      PTCLDY    57  57 100 CALM      29.92S
ESTHERVILLE    CLOUDY    60  60 100 SW3       29.91F
FORT DODGE *   CLOUDY    57  55  94 E3        29.91F
MASON CITY     CLOUDY    59  57  93 W6        29.91F
FOREST CITY *    N/A     59  59 100 CALM      29.91R
WEBSTER CITY * CLOUDY    61  59  94 W5        29.91R
IOWA FALLS *     N/A     59  58  96 W5        29.92R
$$

IAZ007>011-017>019-026>030-037>042-050>054-066-181100-
   NORTHEAST IOWA

CITY           SKY/WX    TMP DP  RH WIND       PRES   REMARKS
CEDAR RAPIDS   CLEAR     58  58 100 W5        29.86F
CHARLES CITY * CLEAR     57  57 100 W7        29.89R
CLINTON *      CLEAR     61  60  97 W8        29.86R
DECORAH *      CLEAR     61  59  94 NW6       29.86F
DUBUQUE        CLEAR     61  59  93 W7        29.86R
MONTICELLO *   CLEAR     59  59 100 CALM      29.85F
OELWEIN *      CLEAR     59  59 100 NW5       29.88S
WATERLOO       CLEAR     58  57  97 W6        29.87S
$$

IAZ064-065-067-068-078-181100-
   EAST CENTRAL IOWA

CITY           SKY/WX    TMP DP  RH WIND       PRES   REMARKS
DAVENPORT      CLEAR     62  60  93 W7        29.88S
IOWA CITY      CLEAR     61  59  93 CALM      29.88F
MUSCATINE *    CLEAR     64  61  88 CALM      29.88R
QUAD CITIES    CLEAR     66  61  84 W6        29.86S
$$

IAZ062-063-075>077-085>089-095>099-181100-
   SOUTHEAST IOWA

CITY           SKY/WX    TMP DP  RH WIND       PRES   REMARKS
BURLINGTON     CLEAR     63  61  93 CALM      29.89S
FAIRFIELD *    CLEAR     61  57  88 W6        29.89S
FORT MADISON * CLEAR     63  61  94 NW3       29.90S
KEOKUK *       CLEAR     63  59  88 W5        29.89S
OSKALOOSA *      N/A     58  57  96 W3        29.90S
OTTUMWA        CLEAR     61  59  93 SW3       29.90S
WASHINGTON *   CLEAR     61  61 100 W6        29.89F
$$

ABBREVIATIONS USED IN REMARKS
   TC - TEMPERATURES IN CELSIUS
  WCI - WIND CHILL INDEX
   HX - HEAT INDEX
  VSB - VISIBILITY
$$





USA.gov is the U.S. government's official web portal to all federal, state and local government web resources and services.